When you browse on this site, cookies collect data to enhance your experience and personalize the content and advertising you see.
Visit our Privacy Policy to learn more. By continuing to use the site, you agree to this use of cookies and data.
  • In Hungary
  • List of Countries
  • For 7 days
  • Water Temperature
  • Weather Map
  • News
  • Weather Widgets
  • user-avatar
    Login

    Hourly Weather Peglity

    Today, 19 September, Thursday

    Time Temperature Precipitation Wind Pressure Humidity
    00:00 +7°C° 0 mm 3 mps 751 mmHg 87%
    01:00 +5°C° 0 mm 3 mps 751 mmHg 88%
    02:00 +5°C° 0 mm 3 mps 751 mmHg 90%
    03:00 +5°C° 0 mm 3 mps 752 mmHg 91%
    04:00 +6°C° 0 mm 2 mps 752 mmHg 93%
    05:00 +7°C° 0 mm 2 mps 752 mmHg 89%
    06:00 +8°C° 0 mm 3 mps 752 mmHg 86%
    07:00 +8°C° 0 mm 3 mps 752 mmHg 82%
    08:00 +10°C° 0.3 mm 3 mps 753 mmHg 76%
    09:00 +11°C° 0.3 mm 4 mps 753 mmHg 69%
    10:00 +13°C° 0.3 mm 4 mps 754 mmHg 63%
    11:00 +13°C° 0.4 mm 5 mps 754 mmHg 61%
    12:00 +13°C° 0.4 mm 5 mps 754 mmHg 60%
    13:00 +13°C° 0.4 mm 5 mps 754 mmHg 58%
    14:00 +13°C° 0.2 mm 5 mps 754 mmHg 62%
    15:00 +12°C° 0.2 mm 5 mps 754 mmHg 65%
    16:00 +12°C° 0.2 mm 5 mps 754 mmHg 68%
    17:00 +9°C° 0 mm 5 mps 754 mmHg 75%
    18:00 +8°C° 0 mm 4 mps 755 mmHg 82%
    19:00 +7°C° 0 mm 4 mps 755 mmHg 88%
    20:00 +7°C° 0 mm 3 mps 755 mmHg 88%
    21:00 +7°C° 0 mm 3 mps 755 mmHg 89%
    22:00 +5°C° 0 mm 3 mps 756 mmHg 89%
    23:00 +5°C° 0 mm 3 mps 756 mmHg 89%

    Tomorrow, 20 September, Friday

    Time Temperature Precipitation Wind Pressure Humidity
    00:00 +5°C° 0 mm 3 mps 756 mmHg 89%
    01:00 +5°C° 0 mm 2 mps 756 mmHg 89%
    02:00 +5°C° 0 mm 2 mps 756 mmHg 89%
    03:00 +5°C° 0 mm 2 mps 756 mmHg 89%
    04:00 +5°C° 0 mm 2 mps 756 mmHg 89%
    05:00 +6°C° 0 mm 2 mps 756 mmHg 85%
    06:00 +6°C° 0 mm 2 mps 756 mmHg 81%
    07:00 +7°C° 0 mm 2 mps 756 mmHg 77%
    08:00 +9°C° 0.1 mm 3 mps 756 mmHg 71%
    09:00 +11°C° 0.1 mm 3 mps 757 mmHg 64%
    10:00 +12°C° 0.1 mm 3 mps 757 mmHg 58%
    11:00 +13°C° 0.1 mm 3 mps 757 mmHg 56%
    12:00 +13°C° 0.1 mm 3 mps 756 mmHg 54%
    13:00 +14°C° 0.1 mm 4 mps 756 mmHg 52%
    14:00 +13°C° 0 mm 3 mps 756 mmHg 51%
    15:00 +13°C° 0 mm 3 mps 756 mmHg 50%
    16:00 +13°C° 0 mm 3 mps 756 mmHg 49%
    17:00 +13°C° 0 mm 2 mps 756 mmHg 54%
    18:00 +10°C° 0 mm 2 mps 756 mmHg 59%
    19:00 +10°C° 0 mm 1 mps 756 mmHg 63%
    20:00 +8°C° 0 mm 2 mps 755 mmHg 69%
    21:00 +8°C° 0 mm 2 mps 755 mmHg 75%
    22:00 +8°C° 0 mm 2 mps 755 mmHg 81%
    23:00 +8°C° 0 mm 3 mps 755 mmHg 82%

    Day after tomorrow, 21 September, Saturday

    Time Temperature Precipitation Wind Pressure Humidity
    00:00 +8°C° 0 mm 4 mps 755 mmHg 82%
    01:00 +10°C° 0 mm 4 mps 755 mmHg 82%
    02:00 +10°C° 0 mm 4 mps 754 mmHg 86%
    03:00 +8°C° 0 mm 4 mps 754 mmHg 90%
    04:00 +8°C° 0 mm 4 mps 754 mmHg 94%
    05:00 +10°C° 0 mm 4 mps 754 mmHg 93%
    06:00 +10°C° 0 mm 4 mps 754 mmHg 91%
    07:00 +9°C° 0 mm 5 mps 754 mmHg 90%
    08:00 +10°C° 0 mm 5 mps 754 mmHg 87%
    09:00 +12°C° 0 mm 5 mps 754 mmHg 84%
    10:00 +13°C° 0 mm 5 mps 754 mmHg 81%
    11:00 +13°C° 0 mm 5 mps 754 mmHg 79%
    12:00 +14°C° 0 mm 5 mps 754 mmHg 77%
    13:00 +14°C° 0 mm 5 mps 754 mmHg 75%
    14:00 +14°C° 0 mm 4 mps 753 mmHg 74%
    15:00 +15°C° 0 mm 4 mps 753 mmHg 73%
    16:00 +16°C° 0 mm 3 mps 753 mmHg 72%
    17:00 +14°C° 0 mm 3 mps 753 mmHg 76%
    18:00 +14°C° 0 mm 2 mps 753 mmHg 81%
    19:00 +13°C° 0 mm 1 mps 753 mmHg 85%
    20:00 +12°C° 0 mm 1 mps 753 mmHg 87%
    21:00 +12°C° 0 mm 1 mps 753 mmHg 90%
    22:00 +11°C° 0 mm 1 mps 753 mmHg 93%
    23:00 +10°C° 0 mm 2 mps 753 mmHg 93%

    22 September, Sunday

    Time Temperature Precipitation Wind Pressure Humidity
    00:00 +10°C° 0 mm 2 mps 753 mmHg 94%
    01:00 +9°C° 0 mm 2 mps 753 mmHg 94%
    02:00 +9°C° 0 mm 2 mps 753 mmHg 94%
    03:00 +9°C° 0 mm 2 mps 752 mmHg 95%
    04:00 +9°C° 0 mm 2 mps 752 mmHg 95%
    05:00 +10°C° 0 mm 2 mps 752 mmHg 92%
    06:00 +10°C° 0 mm 2 mps 752 mmHg 90%
    07:00 +12°C° 0 mm 2 mps 752 mmHg 87%
    08:00 +14°C° 0 mm 2 mps 752 mmHg 78%
    09:00 +16°C° 0 mm 2 mps 752 mmHg 69%
    10:00 +18°C° 0 mm 2 mps 753 mmHg 60%
    11:00 +19°C° 0 mm 2 mps 752 mmHg 56%
    12:00 +21°C° 0 mm 1 mps 752 mmHg 52%
    13:00 +22°C° 0 mm 1 mps 751 mmHg 48%
    14:00 +22°C° 0 mm 1 mps 751 mmHg 49%
    15:00 +22°C° 0 mm 1 mps 750 mmHg 51%
    16:00 +22°C° 0 mm 1 mps 750 mmHg 53%
    17:00 +20°C° 0 mm 1 mps 750 mmHg 59%
    18:00 +18°C° 0 mm 1 mps 750 mmHg 65%
    19:00 +15°C° 0 mm 2 mps 750 mmHg 71%
    20:00 +14°C° 0 mm 2 mps 749 mmHg 73%
    21:00 +13°C° 0 mm 2 mps 749 mmHg 75%
    22:00 +13°C° 0 mm 2 mps 749 mmHg 77%
    23:00 +12°C° 0 mm 3 mps 749 mmHg 79%

    23 September, Monday

    Time Temperature Precipitation Wind Pressure Humidity
    00:00 +11°C° 0 mm 3 mps 748 mmHg 81%
    01:00 +11°C° 0 mm 3 mps 748 mmHg 83%
    02:00 +11°C° 0 mm 3 mps 747 mmHg 83%
    03:00 +10°C° 0 mm 3 mps 747 mmHg 84%
    04:00 +10°C° 0 mm 3 mps 746 mmHg 84%
    05:00 +11°C° 0 mm 4 mps 746 mmHg 81%
    06:00 +11°C° 0 mm 4 mps 746 mmHg 78%
    07:00 +12°C° 0 mm 4 mps 745 mmHg 75%
    08:00 +12°C° 0 mm 4 mps 745 mmHg 71%
    09:00 +13°C° 0 mm 4 mps 745 mmHg 67%
    10:00 +14°C° 0 mm 3 mps 745 mmHg 63%
    11:00 +16°C° 0 mm 3 mps 744 mmHg 61%
    12:00 +17°C° 0 mm 3 mps 744 mmHg 59%
    13:00 +18°C° 0 mm 2 mps 743 mmHg 57%
    14:00 +17°C° 0 mm 2 mps 743 mmHg 59%
    15:00 +17°C° 0 mm 2 mps 742 mmHg 61%
    16:00 +17°C° 0 mm 2 mps 742 mmHg 62%
    17:00 +16°C° 0 mm 1 mps 742 mmHg 64%
    18:00 +15°C° 0 mm 1 mps 742 mmHg 67%
    19:00 +15°C° 0 mm 1 mps 742 mmHg 69%
    20:00 +14°C° 0 mm 1 mps 742 mmHg 69%
    21:00 +14°C° 0 mm 1 mps 742 mmHg 69%
    22:00 +14°C° 0 mm 1 mps 742 mmHg 69%
    23:00 +14°C° 0 mm 1 mps 742 mmHg 72%

    24 September, Tuesday

    Time Temperature Precipitation Wind Pressure Humidity
    00:00 +13°C° 0 mm 1 mps 742 mmHg 75%
    01:00 +12°C° 0 mm 1 mps 742 mmHg 78%
    02:00 +12°C° 0 mm 1 mps 742 mmHg 81%
    03:00 +10°C° 0 mm 2 mps 742 mmHg 84%
    04:00 +10°C° 0 mm 2 mps 742 mmHg 87%
    05:00 +10°C° 0 mm 2 mps 742 mmHg 87%
    06:00 +10°C° 0 mm 2 mps 742 mmHg 86%
    07:00 +12°C° 0 mm 2 mps 742 mmHg 85%
    08:00 +13°C° 0 mm 2 mps 743 mmHg 79%
    09:00 +15°C° 0 mm 2 mps 743 mmHg 72%
    10:00 +17°C° 0 mm 2 mps 744 mmHg 66%
    11:00 +17°C° 0 mm 2 mps 743 mmHg 63%
    12:00 +18°C° 0 mm 2 mps 743 mmHg 60%
    13:00 +19°C° 0 mm 2 mps 743 mmHg 57%
    14:00 +19°C° 0 mm 2 mps 743 mmHg 59%
    15:00 +18°C° 0 mm 2 mps 743 mmHg 61%
    16:00 +18°C° 0 mm 2 mps 744 mmHg 64%
    17:00 +16°C° 0 mm 2 mps 744 mmHg 71%
    18:00 +15°C° 0 mm 1 mps 744 mmHg 79%
    19:00 +13°C° 0 mm 1 mps 744 mmHg 86%
    20:00 +13°C° 0 mm 1 mps 744 mmHg 87%
    21:00 +13°C° 0 mm 1 mps 744 mmHg 89%
    22:00 +13°C° 0 mm 1 mps 744 mmHg 90%
    23:00 +13°C° 0 mm 1 mps 744 mmHg 89%
    Show more